Other Public Products
Issued by NWS Grand Forks, ND

Home | Current Version | Previous Version | Text Only | Print | Product List | Glossary On
Versions: 1 2 3 4 5 6 7 8 9 10 11 12 13 14 15 16 17 18 19 20 21 22 23 24 25 26 27 28 29 30 31 32 33 34 35 36 37 38 39 40 41 42 43 44 45 46 47 48 49 50
661
FPUS83 KFGF 141931
OPUFGF
PRAIRIE TO PINES WEATHER ROUNDUP
NATIONAL WEATHER SERVICE EASTERN NORTH DAKOTA/GRAND FORKS ND
100 PM CST THU DEC 14 2017

 **SATELLITE DATA USED TO AUGMENT SKY COVER AT AUTOMATED STATIONS**
 *****  WEATHER ACROSS EASTERN NORTH DAKOTA  *****

CITY           SKY/WX    TMP DP  RH WIND       PRES   REMARKS
GRAND FORKS    CLOUDY    21  17  84 NW14      30.08S WCI   8
GRND FORKS AFB CLOUDY    25  16  68 N9        30.06F WCI  15
GRND FORKS NWS NOT AVBL
BUXTON           N/A     22  19  89 NW14        N/A  WCI   9
DEVILS LAKE    FLURRIES  27  23  86 W8        30.05F WCI  18
FARGO          CLOUDY    23  18  81 N14       30.07S WCI  11
WAHPETON ARPT  CLOUDY    27  19  74 N12G17    30.08S WCI  16
$$

 *****  WEATHER ACROSS CENTRAL AND WESTERN NORTH DAKOTA  *****

CITY           SKY/WX    TMP DP  RH WIND       PRES   REMARKS
JAMESTOWN      CLOUDY    26  23  88 NW10      30.07F WCI  16
BISMARCK       CLOUDY    34  24  67 NW17G23   30.14S WCI  23
MINOT          CLOUDY    33  26  75 W16       30.09F WCI  23
MINOT AFB      FLURRIES  34  25  69 NW17      30.07F WCI  23
GARRISON         N/A     33  26  75 NW22      30.11F WCI  21
WILLISTON      CLOUDY    36  25  64 W15       30.18F
DICKINSON      CLOUDY    32  25  75 NW22G28   30.14F WCI  19
HETTINGER      CLOUDY    34  22  61 NW21G26   30.18F WCI  22
$$

 *****  OTHER OBSERVATIONS NORTHEAST NORTH DAKOTA  *****

CITY           SKY/WX    TMP DP  RH WIND       PRES   REMARKS
WALHALLA       FAIR      19  19 100 N9        30.06F WCI   9
LANGDON        CLOUDY    23  23 100 NW10      30.01F WCI  12
CAVALIER       CLOUDY    19  16  86 N9        30.06F WCI   9
GRAFTON        MOCLDY    19  16  86 N9        30.09F WCI   9
CANDO          CLOUDY    28  27  93 NW17      30.06F WCI  16
FORT TOTTEN      N/A     27  22  82 NW5       29.95S WCI  22
ROLLA          FLURRIES  27  25  93 NW17G23   30.03F WCI  14
RUGBY          CLOUDY    28  23  80 NW21      30.06F WCI  15
 ***** THE ABOVE OBSERVATIONS ARE NON NWS ARE NOT QUALITY
        CONTROLLED AND MAY MIS-REPORT RAIN FOR SNOW...
$$

 *****  OTHER OBSERVATIONS SOUTHEAST NORTH DAKOTA *****

CITY           SKY/WX    TMP DP  RH WIND       PRES   REMARKS
COOPERSTOWN    CLOUDY    25  21  86 N16G22    30.06F WCI  12
VALLEY CITY    CLOUDY    25  25 100 NW16      30.08F WCI  12
OAKES            N/A     27  27 100 N9        30.09R WCI  17
GWINNER          N/A     27  25  93 N9        30.08R WCI  17
SHEYENNE NWR     N/A     26  24  93 N7        29.95S WCI  18
BUFFALO          N/A     24  18  77 NW18        N/A  WCI  10
WYNDMERE       NOT AVBL
 ***** THE ABOVE OBSERVATIONS ARE NON NWS ARE NOT QUALITY
       CONTROLLED AND MAY MIS-REPORT RAIN FOR SNOW...
$$

  *****  WEATHER ACROSS NORTHERN MINNESOTA  *****

CITY           SKY/WX    TMP DP  RH WIND       PRES   REMARKS
FLAG ISLAND    FLURRIES  12   7  79 NW10      29.96S WCI  -1
WARROAD        LGT SNOW  12   7  79 NW8       30.00S WCI   1
ROSEAU         LGT SNOW  14   9  79 W9        30.01S WCI   2
HALLOCK        CLOUDY    18  12  79 N9        30.05F WCI   6
THF RVR FALLS  FLURRIES  15  10  80 NW14      30.04S WCI   0
HALSTAD        NOT AVBL
FOSSTON        FLURRIES  16  10  79 NW12      30.02S WCI   3
BAUDETTE       LGT SNOW  12   7  80 NW9       29.96F WCI   0
WASKISH        FLURRIES  14   9  79 NW8       29.98S WCI   3
CROOKSTON      MIX PCPN  18  16  93 N14       30.07F WCI   4
$$
  *****  WEATHER ACROSS CENTRAL AND WEST MINNESOTA  *****

CITY           SKY/WX    TMP DP  RH WIND       PRES   REMARKS
BEMIDJI        FLURRIES  16  11  79 NW14G21   29.97S WCI   2
PARK RAPIDS    LGT SNOW  19  14  81 NW15      29.97F WCI   5
WADENA         MIX PCPN  19  14  79 NW14      29.99F WCI   6
DETROIT LAKES  LGT SNOW  21  18  86 NW16G25   30.03S WCI   7
MOORHEAD       CLOUDY    21  18  86 N15       30.08S WCI   8
FERGUS FALLS   CLOUDY    21  18  86 N13G21    30.08S WCI   9
ELBOW LAKE     CLOUDY    22  19  85 NW12      30.04S WCI  11
MORRIS MN      FLURRIES  25  19  80 NW14      30.04S WCI  13
STAPLES        FLURRIES  19  14  79 NW7       29.98F WCI  10
WHEATON        FLURRIES  25  19  80 NW10      30.09S WCI  15
$$
  *****  WEATHER ELSEWHERE ACROSS MINNESOTA  *****

CITY           SKY/WX    TMP DP  RH WIND       PRES   REMARKS
DULUTH         LGT SNOW  16  10  77 W10       29.92F WCI   4
INTRNTL FALLS  CLOUDY    15   7  70 W9        29.94F WCI   3
ELY            PTSUNNY   16   7  67 W8        29.90F WCI   5
CLOQUET        LGT SNOW  18   9  68 W6        29.94S WCI   9
BRAINERD       CLOUDY    19  12  74 NW9       29.98F WCI   8
HIBBING        CLOUDY    15   8  73 VRB6      29.93F WCI   6
ALEXANDRIA     FLURRIES  22  16  78 NW10      30.01F WCI  11
SAINT CLOUD    CLOUDY    21  16  81 W7        30.01F WCI  12
MINNEAPOLIS    CLOUDY    21  16  81 W8        30.04S WCI  11
$$

  *****  WEATHER ACROSS SOUTH DAKOTA  *****

CITY           SKY/WX    TMP DP  RH WIND       PRES   REMARKS
SIOUX FALLS    CLOUDY    36  27  69 NW6       30.03F
BROOKINGS      FLURRIES  31  27  85 NW5       30.02S
WATERTOWN      CLOUDY    31  29  92 NW10      30.00F WCI  22
HURON          CLOUDY    34  31  88 N16G24    30.06S FOG     WCI  24
SISSETON         N/A     26  24  92 N9        30.06F WCI  17
ABERDEEN       CLOUDY    30  28  92 N15       30.09R WCI  19
MITCHELL       CLOUDY    36  30  79 NW14      30.07S
PIERRE         CLOUDY    34  31  88 N22G28    30.12R WCI  22
MOBRIDGE       CLOUDY    34  27  75 N16G26    30.10S WCI  24
RAPID CITY     FLURRIES  33  25  72 NW31G39   30.19S WCI  19
$$

  *****  SOME WEATHER IN NEARBY STATES *****

CITY           SKY/WX    TMP DP  RH WIND       PRES   REMARKS
GLASGOW MT     FAIR      37  24  59 NW18      30.23F
GREAT FALLS MT FAIR      39  22  50 SW21      30.25F
CHEYENNE WY    SNOW      26  23  88 N13       30.18F VSB 1/2 WCI  15
SCOTTSBLUFF NE CLOUDY    36  21  54 NW26G36   30.22S
OMAHA NE       CLOUDY    40  25  55 NW7       30.06S
DES MOINES IA  CLOUDY    32  18  56 NW8       30.06F WCI  25
DAVENPORT IA   CLOUDY    26  15  63 CALM      30.08F
CHICAGO IL     PTSUNNY   27  11  51 NW5       30.04F WCI  22
EAU CLAIRE WI  CLOUDY    23  14  68 W12       30.01F WCI  12
LA CROSSE WI   FAIR      26  13  57 S7        30.06S WCI  18
$$

  *****  SOME NATIONAL WEATHER *****

CITY           SKY/WX    TMP DP  RH WIND       PRES   REMARKS
LA GUARDIA NY  FAIR      33  17  51 NW20G29   29.80R WCI  21
RALEIGH NC     FAIR      56  24  29 W7        29.85S
ATLANTA GA     PTSUNNY   57  33  40 SW10      29.91F
NEW ORLEANS LA PTSUNNY   64  43  46 CALM      29.99F
OKLAHOMA CITY  FAIR      48  26  42 N14       30.14F
ALBUQUERQUE NM FAIR      45  13  27 E28       30.14F
SALT LAKE CITY FAIR      36  27  69 SE3       30.45F
LOS ANGELES CA FAIR      68  45  43 W8        30.02F
BOISE ID       CLOUDY    26  21  81 SE7       30.57F WCI  18
SEATTLE WA     PTSUNNY   46  36  68 CALM      30.32F
$$

*** WEATHER ACROSS MANITOBA...SASKATCHEWAN AND ONTARIO ***
                ***ONTARIO***

CITY           SKY/WX    TMP DP  RH WIND       PRES   REMARKS
GERALDTON      PTSUNNY    3  -6  66 W8        29.83S WCI -10
THUNDER BAY    CLOUDY    16   7  67 W3        29.93F
SIOUX LOOKOUT  CLOUDY    10   5  79 W3        29.86F
TORONTO        MOSUNNY   19   5  53 NW17      29.92S WCI   4
BIG TROUT LK   CLOUDY    -2  -8  78 NW7       29.86S WCI -16
PICKLE LAKE    CLOUDY     3   0  85 W5        29.80F WCI  -6
DRYDEN         FLURRIES  10   7  85 W7        29.88F WCI   0
KENORA         FLURRIES  10   7  85 NW7       29.92S WCI   0
$$
                *** MANITOBA***

CITY           SKY/WX    TMP DP  RH WIND       PRES   REMARKS
BRANDON        FLURRIES  27  23  86 NW14      30.04F WCI  15
DAUPHIN        CLOUDY    23  19  86 SW3       30.05F
ISLAND LAKE    NOT AVBL
PILOT MOUND      N/A     21  19  93 W5          N/A  WCI  15
THE PAS        FLURRIES  16   7  67 N12G17    30.09S WCI   3
THOMPSON       PTSUNNY    0  -8  71 N7        30.09S WCI -13
WINNIPEG       FLURRIES  16  12  86 NW9       30.04F WCI   4
LYNN LAKE      CLOUDY     1   0  92 W7        30.09F WCI -11
CHURCHILL      LGT SNOW  -2  -6  84 NW18G24   30.05R BLWGSNOWWCI -24
GILLAM         MOCLDY    -9 -15  77 N10       30.06F WCI -28
$$
                ***SASKATCHEWAN***

CITY           SKY/WX    TMP DP  RH WIND       PRES   REMARKS
ESTEVAN        CLOUDY    32  27  80 W18G28    30.11F WCI  20
KINDERSLEY     MOSUNNY   30  25  80 W8        30.17F WCI  23
LLOYDMINSTER   MOSUNNY   28  25  86 SW7       30.09F WCI  21
PRINCE ALBERT  PTSUNNY   27  19  74 NW14G20   30.13F WCI  15
REGINA         CLOUDY    30  27  86 NW15      30.12S WCI  19
YORKTON        CLOUDY    27  25  93 N12       30.05S WC



USA.gov is the U.S. government's official web portal to all federal, state and local government web resources and services.